Retour au catalogue

STARLINK-36472

ActifCommunicationsVLEO
NORAD 67346·PAYLOAD·🇺🇸 United States

Lancé Jan 9, 2026 depuis Cape Canaveral Space Force Station

Loading…

Prochains Passages (prochaines 24 heures)

TLE

FraisSource: CelesTrak SupGP

Époque: Sep 14, 2026, 22:38 UTC

1 67346C 26003N   26257.94354167  .00028675  00000+0  10388-2 0  2574
2 67346  43.0028 238.5177 0001398 262.0213 143.2359 15.27559164    18

Suivez STARLINK-36472 en temps réel avec AllMySat

Download on the App Store